Skip Page Navigation
NASA JPL Caltech
NASA Logo - Jet Propulsion Laboratory + View the NASA Portal
+ Center for Near-Earth Object Studies
JPL Home Earth Solar System Stars & Galaxies Technology
JPL Solar System Dynamics
BODIES ORBITS EPHEMERIDES TOOLS PHYSICAL DATA DISCOVERY FAQ SITE MAP
IMPORTANT: The SSD Announcement email list is now available. Major changes are coming in the near future, including possible hostname and/or URL changes. To be notified of such changes, subscribe to this email list.

Please visit this page for more details.


JPL Small-Body Database Browser
Search: [ help ]  
351842 (2006 QF136)
Classification: Main-belt Asteroid          SPK-ID: 2351842
Ephemeris | Orbit Diagram | Orbital Elements | Mission Design | Physical Parameters | Discovery Circumstances | Close-Approach Data ]

[ show orbit diagram ]
Orbital Elements at Epoch 2459000.5 (2020-May-31.0) TDB
Reference: JPL 19 (heliocentric ecliptic J2000)
 Element Value Uncertainty (1-sigma)   Units 
e .2521766163507718 4.3669e-08  
a 2.682391728791452 2.3461e-08 au
q 2.005955258897526 1.1803e-07 au
i 8.362755140371432 4.0946e-06 deg
node 268.1912348444142 3.9869e-05 deg
peri 27.870981452389 4.3244e-05 deg
M 80.12717271808911 1.2133e-05 deg
tp 2458643.343098205624
(2019-Jun-08.84309821)
5.6451e-05 TDB
period 1604.655203526839
4.39
2.1052e-05
5.764e-08
d
yr
n .2243472611491636 2.9433e-09 deg/d
Q 3.358828198685377 2.9377e-08 au
  Orbit Determination Parameters
   # obs. used (total)      425  
   data-arc span      6196 days (16.96 yr)  
   first obs. used      2002-11-24  
   last obs. used      2019-11-11  
   planetary ephem.      DE431  
   SB-pert. ephem.      SB431-N16  
   condition code      0  
   norm. resid. RMS      .51917  
   source      ORB  
   producer      Otto Matic  
   solution date      2020-May-21 22:55:18  

Additional Information
 Earth MOID = .994216 au 
 Jupiter MOID = 1.86874 au 
 T_jup = 3.315 
[ show covariance matrix ]

Ephemeris | Orbit Diagram | Orbital Elements | Mission Design | Physical Parameters | Discovery Circumstances | Close-Approach Data ]

Physical Parameter Table
Parameter Symbol Value Units Sigma Reference Notes
absolute magnitude H 15.9   n/a MPO494834  

351842 (2006 QF136)          Discovered 2006-Aug-29 by LONEOS at Anderson Mesa
Reference: 20130127/Numbers.arcLast Updated: 2013-01-31

[ show close-approach data ]
Ephemeris | Orbit Diagram | Orbital Elements | Mission Design | Physical Parameters | Discovery Circumstances | Close-Approach Data ]
ABOUT SSD CREDITS/AWARDS PRIVACY/COPYRIGHT GLOSSARY LINKS
FirstGov 2020-Jun-01 00:19 UT
(server date/time)  
NASA Home Page
Site Manager:   Ryan S. Park
Webmaster  Alan B. Chamberlin